• In Russia
  • List of Countries
  • For 7 days
  • Water Temperature
  • Weather Map
  • Weather Widgets
  • user-avatar
    Login

    Hourly Weather Townsville

    Today, 19 February, Wednesday

    Time Temperature Precipitation Wind Pressure Humidity
    00:00 +29°C° 0 mm 2 mps 748 mmHg 86%
    01:00 +28°C° 0 mm 2 mps 748 mmHg 87%
    02:00 +28°C° 0 mm 2 mps 748 mmHg 87%
    03:00 +28°C° 0 mm 2 mps 747 mmHg 87%
    04:00 +28°C° 0 mm 1 mps 747 mmHg 88%
    05:00 +28°C° 0.1 mm 1 mps 748 mmHg 86%
    06:00 +29°C° 0.1 mm 1 mps 748 mmHg 85%
    07:00 +29°C° 0.1 mm 1 mps 749 mmHg 84%
    08:00 +30°C° 0 mm 2 mps 749 mmHg 77%
    09:00 +32°C° 0 mm 2 mps 749 mmHg 71%
    10:00 +34°C° 0 mm 2 mps 749 mmHg 64%
    11:00 +34°C° 0 mm 2 mps 748 mmHg 63%
    12:00 +35°C° 0 mm 3 mps 748 mmHg 62%
    13:00 +35°C° 0 mm 3 mps 748 mmHg 61%
    14:00 +35°C° 0 mm 3 mps 747 mmHg 62%
    15:00 +34°C° 0 mm 3 mps 746 mmHg 63%
    16:00 +34°C° 0 mm 3 mps 746 mmHg 64%
    17:00 +33°C° 0 mm 3 mps 746 mmHg 69%
    18:00 +31°C° 0 mm 2 mps 747 mmHg 73%
    19:00 +30°C° 0 mm 2 mps 747 mmHg 78%
    20:00 +29°C° 0 mm 2 mps 747 mmHg 80%
    21:00 +29°C° 0 mm 2 mps 748 mmHg 82%
    22:00 +29°C° 0 mm 2 mps 748 mmHg 84%
    23:00 +29°C° 0 mm 2 mps 748 mmHg 85%

    Tomorrow, 20 February, Thursday

    Time Temperature Precipitation Wind Pressure Humidity
    00:00 +29°C° 0 mm 2 mps 748 mmHg 86%
    01:00 +29°C° 0 mm 2 mps 748 mmHg 86%
    02:00 +29°C° 0 mm 2 mps 748 mmHg 87%
    03:00 +28°C° 0 mm 2 mps 747 mmHg 87%
    04:00 +28°C° 0 mm 2 mps 747 mmHg 87%
    05:00 +29°C° 0.1 mm 1 mps 748 mmHg 86%
    06:00 +29°C° 0.1 mm 1 mps 748 mmHg 85%
    07:00 +29°C° 0.1 mm 1 mps 749 mmHg 84%
    08:00 +30°C° 0 mm 1 mps 749 mmHg 78%
    09:00 +32°C° 0 mm 2 mps 749 mmHg 72%
    10:00 +34°C° 0 mm 2 mps 749 mmHg 66%
    11:00 +35°C° 0 mm 2 mps 749 mmHg 64%
    12:00 +35°C° 0 mm 2 mps 748 mmHg 61%
    13:00 +36°C° 0 mm 2 mps 748 mmHg 58%
    14:00 +35°C° 0.1 mm 3 mps 748 mmHg 60%
    15:00 +35°C° 0.1 mm 3 mps 747 mmHg 62%
    16:00 +35°C° 0.1 mm 3 mps 747 mmHg 63%
    17:00 +33°C° 0 mm 3 mps 747 mmHg 68%
    18:00 +31°C° 0 mm 3 mps 748 mmHg 73%
    19:00 +30°C° 0 mm 2 mps 748 mmHg 77%
    20:00 +30°C° 0 mm 2 mps 749 mmHg 78%
    21:00 +29°C° 0 mm 2 mps 749 mmHg 79%
    22:00 +29°C° 0 mm 2 mps 750 mmHg 81%
    23:00 +29°C° 0 mm 2 mps 750 mmHg 81%

    Day after tomorrow, 21 February, Friday

    Time Temperature Precipitation Wind Pressure Humidity
    00:00 +29°C° 0 mm 2 mps 750 mmHg 82%
    01:00 +28°C° 0 mm 1 mps 750 mmHg 82%
    02:00 +28°C° 0.1 mm 1 mps 749 mmHg 82%
    03:00 +28°C° 0.1 mm 1 mps 749 mmHg 82%
    04:00 +28°C° 0.1 mm 1 mps 749 mmHg 82%
    05:00 +28°C° 0 mm 1 mps 749 mmHg 81%
    06:00 +28°C° 0 mm 1 mps 749 mmHg 80%
    07:00 +29°C° 0 mm 2 mps 750 mmHg 79%
    08:00 +30°C° 0 mm 2 mps 750 mmHg 73%
    09:00 +31°C° 0 mm 2 mps 750 mmHg 66%
    10:00 +34°C° 0 mm 2 mps 750 mmHg 60%
    11:00 +34°C° 0 mm 2 mps 750 mmHg 59%
    12:00 +35°C° 0 mm 3 mps 750 mmHg 58%
    13:00 +35°C° 0 mm 3 mps 750 mmHg 57%
    14:00 +35°C° 0.1 mm 4 mps 749 mmHg 58%
    15:00 +35°C° 0.1 mm 4 mps 749 mmHg 60%
    16:00 +34°C° 0.1 mm 4 mps 748 mmHg 61%
    23:00 +28°C° 0.1 mm 3 mps 751 mmHg 85%

    22 February, Saturday

    Time Temperature Precipitation Wind Pressure Humidity
    00:00 +28°C° 0.3 mm 3 mps 751 mmHg 89%
    01:00 +28°C° 0.3 mm 3 mps 750 mmHg 90%
    02:00 +28°C° 0.1 mm 3 mps 750 mmHg 91%
    03:00 +28°C° 0.1 mm 3 mps 750 mmHg 91%
    04:00 +27°C° 0.1 mm 3 mps 750 mmHg 91%
    05:00 +28°C° 0.1 mm 3 mps 750 mmHg 90%
    06:00 +28°C° 0.1 mm 3 mps 751 mmHg 89%
    07:00 +28°C° 0.1 mm 3 mps 751 mmHg 88%
    08:00 +29°C° 0.1 mm 4 mps 751 mmHg 80%
    09:00 +32°C° 0.1 mm 4 mps 752 mmHg 72%
    10:00 +33°C° 0.1 mm 4 mps 752 mmHg 65%
    11:00 +34°C° 0 mm 4 mps 751 mmHg 62%
    12:00 +34°C° 0 mm 5 mps 751 mmHg 59%
    13:00 +35°C° 0 mm 5 mps 751 mmHg 56%
    14:00 +34°C° 0 mm 5 mps 750 mmHg 58%
    15:00 +34°C° 0 mm 5 mps 750 mmHg 61%
    16:00 +34°C° 0 mm 5 mps 749 mmHg 63%
    17:00 +32°C° 0.3 mm 5 mps 749 mmHg 70%
    18:00 +30°C° 0.3 mm 4 mps 750 mmHg 77%
    19:00 +29°C° 0.3 mm 4 mps 750 mmHg 84%
    20:00 +28°C° 0.4 mm 4 mps 751 mmHg 85%
    21:00 +28°C° 0.4 mm 4 mps 751 mmHg 86%
    22:00 +28°C° 0.4 mm 4 mps 752 mmHg 87%
    23:00 +27°C° 0.4 mm 3 mps 751 mmHg 87%

    23 February, Sunday

    Time Temperature Precipitation Wind Pressure Humidity
    00:00 +27°C° 0.4 mm 3 mps 751 mmHg 88%
    01:00 +27°C° 0.4 mm 3 mps 751 mmHg 89%
    02:00 +27°C° 1 mm 3 mps 751 mmHg 90%
    03:00 +27°C° 1 mm 3 mps 750 mmHg 90%
    04:00 +26°C° 1 mm 3 mps 750 mmHg 91%
    05:00 +26°C° 1 mm 3 mps 751 mmHg 91%
    06:00 +27°C° 1 mm 4 mps 751 mmHg 91%
    07:00 +27°C° 1 mm 4 mps 752 mmHg 91%
    08:00 +28°C° 0.3 mm 4 mps 752 mmHg 84%
    09:00 +29°C° 0.3 mm 5 mps 752 mmHg 77%
    10:00 +32°C° 0.3 mm 5 mps 752 mmHg 71%
    11:00 +32°C° 0.3 mm 5 mps 751 mmHg 68%
    12:00 +33°C° 0.3 mm 5 mps 751 mmHg 66%
    13:00 +33°C° 0.3 mm 5 mps 751 mmHg 64%
    14:00 +33°C° 0.8 mm 5 mps 750 mmHg 66%
    15:00 +32°C° 0.8 mm 5 mps 750 mmHg 69%
    16:00 +32°C° 0.8 mm 5 mps 749 mmHg 71%
    17:00 +30°C° 1.2 mm 5 mps 750 mmHg 76%
    18:00 +29°C° 1.2 mm 5 mps 750 mmHg 81%
    19:00 +28°C° 1.2 mm 5 mps 750 mmHg 86%
    20:00 +28°C° 1.3 mm 5 mps 751 mmHg 87%
    21:00 +27°C° 1.3 mm 5 mps 751 mmHg 89%
    22:00 +27°C° 1.3 mm 5 mps 752 mmHg 91%
    23:00 +27°C° 2.4 mm 5 mps 751 mmHg 91%

    24 February, Monday

    Time Temperature Precipitation Wind Pressure Humidity
    00:00 +27°C° 2.4 mm 5 mps 751 mmHg 92%
    01:00 +27°C° 2.4 mm 5 mps 751 mmHg 93%
    02:00 +27°C° 2.2 mm 5 mps 750 mmHg 92%
    03:00 +27°C° 2.2 mm 5 mps 750 mmHg 92%
    04:00 +27°C° 2.2 mm 5 mps 750 mmHg 92%
    05:00 +27°C° 2.3 mm 6 mps 750 mmHg 92%
    06:00 +26°C° 2.3 mm 7 mps 751 mmHg 92%
    07:00 +26°C° 2.3 mm 8 mps 751 mmHg 93%
    08:00 +26°C° 1.8 mm 7 mps 751 mmHg 92%
    09:00 +27°C° 1.8 mm 7 mps 751 mmHg 92%
    10:00 +27°C° 1.8 mm 6 mps 751 mmHg 91%
    11:00 +27°C° 0.5 mm 6 mps 751 mmHg 87%
    12:00 +28°C° 0.5 mm 6 mps 751 mmHg 82%
    13:00 +28°C° 0.5 mm 6 mps 750 mmHg 77%
    14:00 +28°C° 0.6 mm 6 mps 750 mmHg 79%
    15:00 +28°C° 0.6 mm 6 mps 750 mmHg 80%
    16:00 +27°C° 0.6 mm 5 mps 749 mmHg 82%
    17:00 +27°C° 1 mm 6 mps 749 mmHg 85%
    18:00 +27°C° 1 mm 6 mps 750 mmHg 88%
    19:00 +26°C° 1 mm 6 mps 750 mmHg 91%
    20:00 +26°C° 0.6 mm 6 mps 750 mmHg 91%
    21:00 +26°C° 0.6 mm 6 mps 751 mmHg 90%
    22:00 +26°C° 0.6 mm 5 mps 751 mmHg 90%
    23:00 +26°C° 0.7 mm 5 mps 750 mmHg 89%
    Show more